This demonstration page uses our WeatherBlox Daily Observations layout. Learn more.

Left ArrowRight Arrow

Hourly Observations for November 9, 2020

Temp ( °F °C ) Dew Point ( °F °C ) Humidity (%) Winds ( mph kmh ) Pressure ( in mb ) Visibility ( mi km ) Precip ( " mm )
12:56 am 00:56 Clear 59 15 53 11.7 81 81 SSE 20 31 29.67 1005 10 16 0.00 0.00
1:28 am 01:28 Mostly Cloudy 61 16 54 12 77 77 S 23 37 29.67 1005 10 16 0.00 0.00
1:56 am 01:56 Cloudy 60 15.6 55 12.8 84 84 S 21 33 29.67 1005 10 16 0.00 0.00
2:15 am 02:15 Cloudy with Nearby Thunderstorms 61 16 55 13 83 83 S 25 41 29.66 1004 10 16 0.00 0.00
2:30 am 02:30 Cloudy with Light Rain 59 15 55 13 88 88 S 24 39 29.67 1005 10 16 0.01 0.25
2:56 am 02:56 Cloudy 60 15.6 56 13.3 86 86 S 25 41 29.65 1004 10 16 0.01 0.25
3:40 am 03:40 Partly Cloudy 59 15 55 13 88 88 S 29 46 29.63 1003 10 16 0.00 0.00
3:56 am 03:56 Partly Cloudy 59 15 56 13.3 90 90 S 24 39 29.62 1003 10 16 0.00 0.00
4:09 am 04:09 Mostly Cloudy 61 16 55 13 83 83 S 24 39 29.62 1003 10 16 0.00 0.00
4:30 am 04:30 Cloudy with Nearby Thunderstorms 61 16 55 13 83 83 S 25 41 29.64 1004 10 16 0.00 0.00
4:46 am 04:46 Windy with Storms Likely 59 15 57 14 94 94 S 28 44 29.62 1003 10 16 0.01 0.25
4:56 am 04:56 Windy with Storms Likely 59 15 57 13.9 93 93 S 28 44 29.64 1004 3 5 0.01 0.25
5:40 am 05:40 Cloudy with Thunderstorms 59 15 57 14 94 94 S 23 37 29.64 1004 10 16 0.03 0.76
5:56 am 05:56 Cloudy 59 15 57 13.9 93 93 S 22 35 29.63 1004 10 16 0.03 0.76
6:14 am 06:14 Cloudy 59 15 57 14 94 94 S 18 30 29.65 1004 10 16 0.00 0.00
6:56 am 06:56 Cloudy 60 15.6 57 13.9 90 90 S 16 26 29.66 1004 10 16 0.00 0.00
7:56 am 07:56 Cloudy with Light Rain 44 6.7 40 4.4 85 85 NNW 24 39 29.75 1008 10 16 0.00 0.00
8:02 am 08:02 Cloudy with Light Rain 41 5 39 4 93 93 NNW 20 31 29.83 1010 10 16 0.00 0.00
8:13 am 08:13 Cloudy with Light Rain 39 4 37 3 93 93 NNW 21 33 29.84 1010 10 16 0.00 0.00
8:56 am 08:56 Cloudy with Light Rain 38 3.3 36 2.2 93 93 N 21 33 29.81 1009 10 16 0.00 0.00
9:56 am 09:56 Cloudy with Light Rain 34 1.1 32 0 92 92 N 28 44 29.85 1011 10 16 0.01 0.25
10:56 am 10:56 Cloudy 33 0.6 31 -0.6 92 92 N 23 37 29.89 1012 8 13 0.00 0.00
11:56 am 11:56 Cloudy with Mist and Fog 33 0.6 32 0 96 96 N 23 37 29.90 1013 4 6 0.00 0.00
12:56 pm 12:56 Cloudy 31 -0.6 30 -1.1 96 96 N 26 43 29.91 1013 7 11 0.00 0.00
1:56 pm 13:56 Cloudy 31 -0.6 29 -1.7 92 92 N 25 41 29.91 1013 8 13 0.00 0.00
2:56 pm 14:56 Cloudy 31 -0.6 29 -1.7 92 92 N 21 33 29.91 1013 10 16 0.00 0.00
3:56 pm 15:56 Cloudy 31 -0.6 29 -1.7 92 92 N 22 35 29.93 1014 10 16 0.00 0.00
4:56 pm 16:56 Cloudy 31 -0.6 28 -2.2 89 89 N 16 26 29.94 1014 10 16 0.00 0.00
5:16 pm 17:16 Cloudy 30 -1 28 -2 93 93 N 18 30 30.03 1017 10 16 0.00 0.00
5:56 pm 17:56 Cloudy with Light Snow 31 -0.6 28 -2.2 89 89 N 17 28 29.96 1015 9 14 0.00 0.00
6:10 pm 18:10 Cloudy with Nearby Thunderstorms 30 -1 28 -2 93 93 N 20 31 30.04 1017 9 14 0.00 0.00
6:29 pm 18:29 Cloudy 30 -1 28 -2 93 93 N 15 24 30.04 1017 10 16 0.00 0.00
6:56 pm 18:56 Cloudy with Light Snow 31 -0.6 28 -2.2 89 89 N 18 30 29.93 1014 9 14 0.00 0.00
7:20 pm 19:20 Cloudy with Nearby Thunderstorms 30 -1 28 -2 93 93 N 21 33 30.01 1016 9 14 0.01 0.25
7:27 pm 19:27 Cloudy with Light Wintry Mix 30 -1 27 -3 86 86 N 18 30 30.03 1017 10 16 0.01 0.25
7:45 pm 19:45 Windy with Snow Likely 30 -1 28 -2 93 93 N 21 33 30.02 1017 7 11 0.02 0.51
7:56 pm 19:56 Cloudy with Nearby Thunderstorms 31 -0.6 27 -2.8 85 85 N 23 37 29.94 1014 8 13 0.02 0.51
8:03 pm 20:03 Cloudy with Nearby Thunderstorms 30 -1 27 -3 86 86 N 17 28 30.03 1017 10 16 0.00 0.00
8:14 pm 20:14 Cloudy with Light Wintry Mix 28 -2 27 -3 93 93 N 20 31 30.03 1017 10 16 0.00 0.00
8:56 pm 20:56 Windy with Snow Likely 30 -1.1 27 -2.8 88 88 NNE 21 33 29.96 1015 7 11 0.02 0.51
9:56 pm 21:56 Cloudy with Light Wintry Mix 29 -1.7 26 -3.3 89 89 N 17 28 29.98 1015 9 14 0.01 0.25
10:56 pm 22:56 Windy with Snow Likely 28 -2.2 25 -3.9 88 88 N 22 35 29.96 1015 9 14 0.01 0.25
11:56 pm 23:56 Cloudy with Light Wintry Mix 28 -2.2 25 -3.9 88 88 N 20 31 29.97 1015 10 16 0.00 0.00

Powered by AerisWeather